User: anonymous   Login
Location: Caltech
(34.1382°N, 118.1253°W)
Time: 14:05:17
(UTC-07:00)
Language:

Gurwin Techsat 1B - Orbit

View from above orbital plane
View from above orbital plane
View from above satellite
View from above satellite

Ground track
Ground track

The orbit data is extracted from the following two-line orbital elements,

1 25397U 98043D   17178.87791976 -.00000013 +00000-0 +13082-4 0  9991
2 25397 098.6102 120.9896 0001272 024.3533 335.7705 14.23624003985097
Epoch (UTC): 27 June 2017 21:04:12
Eccentricity: 0.0001272
inclination: 98.6102°
perigee height: 812 km
apogee height: 814 km
right ascension of ascending node: 120.9896°
argument of perigee: 24.3533°
revolutions per day: 14.23624003
mean anomaly at epoch: 335.7705°
orbit number at epoch: 98509

The dashed part of the orbit path shows where the satellite is in the earth's shadow,  

DLR